Weather in Filippovka

Russia / Primorsky Krai     43°14′11″N   131°32′25″E
temp.,
°C
wind,
m/s
gust,
m/s
humid.,
%
clouds,
%
prec.,
mm/h
press.,
hPa
HPBL,
m
7 march, sun
sun701:00−10wnw01650 0.0 103521
04:00−11sw01680 0.0 103320
07:00−12wsw11710 0.0 103220
10:00−7ssw12560 0.0 1031314
13:00−2s36440 0.0 1029923
16:00+1ssw35320 0.0 10261000
19:00−2s12500 0.0 102529
22:00−4w11590 0.0 102721
8 march, mon
mon801:00−5nw22590 0.0 102727
04:00−6wnw22630 0.0 102925
07:00−6wnw22640 0.0 102925
10:00−2s01480 0.0 1030137
13:00+2se22390 0.0 1029619
16:00+2sse23490 0.0 1027421
19:00−2sse12700 0.0 102633
22:00−3ssw117715 0.0 102723
9 march, tue
tue901:00−3ssw128783 0.0 102527
04:00−2ssw129790 0.0 102441
07:00−3wsw119870 0.0 102224
10:000sw127972 0.0 1021251
13:00+7sw47384 0.0 10181004
16:00+9w613418 0.0 10172253
19:00+2nw3125434 0.0 10201313
22:00−1nw4144623 0.0 10251256
10 march, wed
wed1001:00−2nw312490 0.0 10261199
04:00−3wnw211490 0.0 10281063
07:00−4wnw311480 0.0 1030714
10:000nw38280 0.0 1031922
13:00+4nnw242013 0.0 10301253
16:00+4sse443010 0.0 1028784
19:00−1s25551 0.0 1027211
22:00−1ssw296338 0.0 1028528
11 march, thu
thu1101:00−1ssw1371100 0.0 1027224
04:00−1sw1176100 0.0 102645
07:00−2wnw117969 0.0 102621
10:00+3sse005837 0.0 1026152
13:00+7se115576 0.0 1025363
16:00+6e226988 0.0 1024321
19:00+3nne4873100 0.0 1026382
22:000n31175100 0.0 1029549